TimeEDT,TemperatureF,Dew PointF,Humidity,Sea Level PressureIn,VisibilityMPH,Wind Direction,Wind SpeedMPH,Gust SpeedMPH,PrecipitationIn,Events,Conditions,WindDirDegrees,DateUTC
12:52 AM,44.1,27.0,51,29.94,10.0,North,18.4,-,N/A,,Partly Cloudy,350,2013-03-21 04:52:00
1:52 AM,42.1,28.0,58,29.94,10.0,NW,11.5,-,N/A,,Partly Cloudy,320,2013-03-21 05:52:00
2:52 AM,39.9,28.0,63,29.93,10.0,NNW,10.4,-,N/A,,Clear,330,2013-03-21 06:52:00
3:52 AM,37.9,28.0,68,29.93,10.0,NNW,8.1,-,N/A,,Clear,330,2013-03-21 07:52:00
4:52 AM,37.0,27.0,67,29.92,10.0,NNW,10.4,-,N/A,,Clear,340,2013-03-21 08:52:00
5:52 AM,35.1,27.0,72,29.93,10.0,NW,5.8,-,N/A,,Partly Cloudy,310,2013-03-21 09:52:00
6:52 AM,34.0,26.1,73,29.94,10.0,NNW,9.2,-,N/A,,Scattered Clouds,330,2013-03-21 10:52:00
7:52 AM,33.1,23.0,66,29.95,10.0,NNW,11.5,-,N/A,,Mostly Cloudy,330,2013-03-21 11:52:00
8:52 AM,32.0,18.0,56,29.98,10.0,NNW,11.5,-,N/A,,Scattered Clouds,330,2013-03-21 12:52:00
9:52 AM,34.0,15.1,46,29.99,10.0,NW,21.9,26.5,N/A,,Mostly Cloudy,320,2013-03-21 13:52:00
10:52 AM,36.0,14.0,41,30.00,10.0,NW,17.3,-,N/A,,Mostly Cloudy,320,2013-03-21 14:52:00
11:52 AM,39.9,12.9,33,30.00,10.0,NNW,18.4,23.0,N/A,,Mostly Cloudy,330,2013-03-21 15:52:00
12:52 PM,42.8,14.0,31,29.97,10.0,WNW,13.8,-,N/A,,Mostly Cloudy,300,2013-03-21 16:52:00
12:59 PM,42.8,12.2,29,29.97,10.0,NW,16.1,21.9,N/A,,Mostly Cloudy,310,2013-03-21 16:59:00
1:52 PM,46.0,15.1,29,29.97,10.0,West,10.4,24.2,N/A,,Mostly Cloudy,280,2013-03-21 17:52:00
2:52 PM,46.9,12.0,24,29.95,10.0,WNW,16.1,23.0,N/A,,Mostly Cloudy,290,2013-03-21 18:52:00
3:52 PM,48.0,12.0,24,29.94,10.0,WNW,12.7,21.9,N/A,,Mostly Cloudy,290,2013-03-21 19:52:00
4:52 PM,46.9,12.0,24,29.92,10.0,WNW,5.8,-,N/A,,Mostly Cloudy,290,2013-03-21 20:52:00
5:52 PM,48.9,10.9,22,29.91,10.0,WNW,10.4,24.2,N/A,,Mostly Cloudy,300,2013-03-21 21:52:00
6:52 PM,48.0,12.0,24,29.93,10.0,West,10.4,-,N/A,,Mostly Cloudy,280,2013-03-21 22:52:00
7:52 PM,45.0,12.0,26,29.93,10.0,NW,9.2,-,N/A,,Mostly Cloudy,320,2013-03-21 23:52:00
8:52 PM,42.1,15.1,34,29.96,10.0,West,6.9,-,N/A,,Mostly Cloudy,270,2013-03-22 00:52:00
9:52 PM,41.0,15.1,35,29.96,10.0,NW,5.8,-,N/A,,Scattered Clouds,310,2013-03-22 01:52:00
10:52 PM,42.1,15.1,34,29.98,10.0,NW,6.9,-,N/A,,Mostly Cloudy,320,2013-03-22 02:52:00
11:52 PM,41.0,16.0,36,29.98,10.0,WNW,5.8,-,N/A,,Mostly Cloudy,290,2013-03-22 03:52:00